カタログに戻る

FENGYUN 1C DEB

運用中SSO
NORAD 32447·DEBRIS·🇨🇳 China

打ち上げ May 10, 1999 から Taiyuan Satellite Launch Center

Loading…

次のパス (今後24時間)

TLE

経年Source: Space-Track

元期: Sep 9, 2026, 06:17 UTC

1 32447U 99025DBK 26252.26217200  .00000263  00000-0  21693-3 0  9997
2 32447  98.9211 265.1081 0079556  17.2200 343.1633 13.96143850716534

AllMySatでFENGYUN 1C DEBをリアルタイム追跡

Download on the App Store